Timeline UpdatesTrip UpdatesNews PostsPvt PostsTravel TipsAdmin PostsConv PostsFollowed PostsChat RequestsBlog PostsPNR Posts

Disclaimer
Search
 
 
Mon Jul 28, 2014 17:53:19 ISTHomeTrainsΣChainsAtlasPNRForumGalleryNewsFAQTripsMembersLoginFeedback
No Recent News for this Train
Other Trains in the News **new
Latest...
.
Mon Jun 30, 2014 (08:03PM)
⇐ Return Journey: Train# 12322

12321/Howrah - Mumbai CST Mail (via Allahabad)

Dec 01 2013 (3:46PM)
Change Departure Station:
Change Arrival Station:
Post a Train Travel TipPost a Train Travel Tip **new
Post a Comment/Question/Picture/VideoPost a Comment/Question/Picture/Video
Pantry/Catering
✓ Pantry Car Avbl
✓ Catering Avbl
Loco/Rake Reversals
ALD/Allahabad Junction (10);
RSA - Rake Sharing
No RSA.
Rake/Coach Composition
LOCO-SLR-GEN(ONLY FOR MILITARY)-GEN-S1-S2-S3-S4-S5-S6-S7-S8-S9-S10-S11-PC-B1-B2-B3-A1-HA1-GEN-SLR.
Loco
#WAP/M 4 HWH/MGS Shed Till ALD ,#WDP 4/B ET Shed(From...
Read more...
ALD-ET)#WAP 4 ET/BSL Shed Till IGP & From IGP #WCAM 3/2P KYN Shed...Author: Ashish tiwari Entry# 333315
News    PNR    Forum    Time-Table    Availability    Fare Chart    Map    Arr/Dep History    Trips    Gallery    ΣChains    X/O    Timeline    
Travel Time: 3h 55m    3 halts    Distance: 180 km    Avg Speed: 45 km/hr
Type: SuperFast
Zone: ER/Eastern
Departs @ 07:30 (Avg 3h 28m late)
Platform# 2
SMTWTFS
Devlali/DVL 
Arrives @ 11:25 (Avg 3h 31m late)
Platform# 18
SMTWTFS
Mumbai CST/CSTM 

3 halts. 44 intermediate Stations between Devlali and Mumbai CST

Show ALL intermediate Stations  Show Old Time-Table

#CodeStation NameX/OArrivesAvgDepartsAvgHaltPFDay#KmSpeedElevZoneAddress
1HWHKolkata Howrah Junction (23)  -22:00+2:0091-1996.68310mERHowrah 711101, West Bengal
2BWNBarddhaman Junction (8)  23:08+2:1923:13+2:205m--1-1902.28034mERDist - Barddhaman, West Bengal
3PANPanagarh (4)X  23:49+2:2023:50+2:211m--1-1854.36270mERKaksa, West Bengal
4DGRDurgapur (5)X  00:05+2:1600:07+2:192m32-1838.78171mERDurgapur, West Bengal
5RNGRaniGanj (4)X  00:25+2:2100:26+2:231m--2-1814.46092mERRaniganj, West Bengal
6ASNAsansol Junction (7)X  00:44+2:2200:49+2:225m--2-1796.261113mERDist - bardhaman, West Bengal
7BRRBarakar (2)  01:06+2:2201:07+2:231m--2-1779.042129mERDist. Bardhaman, West Bengal
8DHNDhanbad Junction (8)  02:05+2:1802:10+2:185m32-1738.171235mECR2319801. Div. HQ ECR, Jharkhand
9GMONetaji SC Bose Gomoh Junction (6)X  02:35+2:2802:45+2:2810m22-1708.383239mECRGomoh, Jharkhand
10PNMEParasnath (5)X  02:58+2:3302:59+2:351m32-1690.274282mECRGiridih 06532-233419, Jharkhand
11HZDHazaribagh Road (3)  03:21+2:3403:22+2:351m--2-1663.185330mECRHazaribagh, Jharkhand
12KQRKoderma Junction (7)  03:56+2:4003:57+2:411m--2-1614.854399mECR06534-222410 Koderma, Jharkhand
13GAYAGaya Junction (9)  05:22+2:2505:27+2:255m12-1538.484117mECR0631-2220283, Bihar
14AUBRAnugraha Narayan Road (4)O  06:16+2:2106:17+2:221m--2-1470.043104mECR06186-285271, Bihar
15DOSDehri On Sone (6)  06:40+2:1906:42+2:202m--2-1453.476114mECRRohtas(06184-253154), Bihar
16SSMSasaram Junction (4)X  06:56+2:2106:57+2:221m--2-1435.877111mECR06184-222051, Bihar
17BBUBhabua Road (4)X  07:34+2:2007:35+2:211m--2-1388.27880mECR06187-222222, Bihar
18MGSMughal Sarai Junction (8)X  08:17+2:2108:27+2:2310m42-1333.65683mECRMughalsarai 232101, Uttar Pradesh
19CARChunar Junction (5)  09:01+2:5709:02+3:001m22-1301.75985mNCRChunar Junction, Uttar Pradesh
20MZPMirzapur (3)X  09:34+3:1509:35+3:191m--2-1270.44988mNCRMirzapur, Uttar Pradesh
21BDLVindhyachal (3)X  09:44+3:2209:45+3:241m--2-1263.16088mNCRMirzapur, Uttar Pradesh
22ALDAllahabad Junction (10)X↵¶11:07+3:5911:27+4:1120m62-1180.912100mNCRAllahabad 211003, Uttar Pradesh
23NYNNaini Junction (4)  12:02+4:0212:04+4:062m32-1173.88398mNCRAllahabad, Uttar Pradesh
24SRJShankargarh (3)  12:31+4:1112:32+4:131m--2-1136.457132mNCRShankargarh, Uttar Pradesh
25MKPManikpur Junction (4)X  13:30+4:0413:35+4:045m--2-1081.462250mNCRManikpur, Uttar Pradesh
26STASatna Junction (3)X  14:50+3:5715:00+4:0010m12-1003.692322mWCRSatna, Madhya Pradesh
27MYRMaihar (3)X  15:23+4:0715:25+4:082m--2-968.376353mWCRMaihar Railway Station, Madhya Pradesh
28KTEKatni Junction (6)XO  16:15+4:1616:20+4:165m42-905.364387mWCRKatni, Madhya Pradesh
29JBPJabalpur Junction (4)X  17:45+4:0717:55+4:1610m12-814.780416mWCRJabalpur, Madhya Pradesh
30SRIDShridham (3)  18:35+4:1518:36+4:161m32-761.455373mWCRShridham, Madhya Pradesh
31NUNarsinghpur (2)X  19:10+4:1819:12+4:202m22-730.470365mWCRNarsimhapur, Madhya Pradesh
32KYKareli (2)X  19:26+4:2119:27+4:231m22-714.088361mWCRKareli, Madhya Pradesh
33GARGadarwara (2)X  19:46+4:2519:47+4:271m22-686.169352mWCRNarsinghpur, Madhya Pradesh
34PPIPipariya (3)  20:30+4:2220:32+4:222m22-636.739338mWCRPiparia, Madhya Pradesh
35ETItarsi Junction (7)X22:15+4:0122:25+4:1410m--2-569.589329mWCRItarsi 461111, Madhya Pradesh
36HDHarda (3)  23:16+4:1923:17+4:201m--2-493.763289mWCRHarda, Madhya Pradesh
37KNWKhandwa Junction (5)X  01:00+3:5001:05+3:505m--3-386.075310mCRKhandwa, Madhya Pradesh
38NPNRNepanagar (2)X  01:39+3:5501:40+3:581m--3-343.466289mCRState Highway 27, Madhya Pradesh
39BAUBurhanpur (2)  02:04+3:5502:05+3:561m13-317.273269mCRBurhanpur, Madhya Pradesh
40BSLBhusaval Junction (8)X  02:50+3:5803:00+4:0210m33-262.760208mCRBhusaval 425201, Maharashtra
41JLJalgaon Junction (4)  03:24+4:0303:25+4:051m23-238.694213mCRJalgaon 425001, Maharashtra
42CSNChalisgaon Junction (3)X  04:24+4:1704:25+4:191m--3-146.058352mCRChalisgaon 424101, Maharashtra
43MMRManmad Junction (6)  05:35+4:0605:40+4:085m33-78.544580mCRManmad 423104, Maharashtra
44NKNasik Road (3)  07:19+3:2807:20+3:301m33-5.738563mCRNashik 422101, Maharashtra
45DVL»Devlali (3)»  07:29+3:2707:30+3:281m230.050561mCRDist. Nashik 422401, Maharashtra
46IGPIgatpuri (4)X08:24+3:2208:25+3:381m--344.945589mCRIgatpuri 422403, Maharashtra
47KYNKalyan Junction (8)  10:15+3:2910:20+3:255m63126.76810mCRKalyan 421301, Maharashtra
48DRMumbai Dadar Central (8)  10:59+3:3011:00+3:291m63171.2217mCRMumbai 400014, Maharashtra
49CSTM•Mumbai CST (18)•  11:25+3:31-183179.8-10mCRMumbai 400001, Maharashtra
Scroll to Top
Scroll to Bottom